Location: Shades State Park
(39.9310°N, 87.0690°W)
Time: 10:02:31
(UTC-04:00)

ISS - Visible Passes

Search period start: 28 August 2016 00:00
Search period end: 07 September 2016 00:00
Orbit: 402 x 406 km, 51.6° (Epoch: 28 August)

Date Brightness Start Highest point End Pass type
(mag) Time Alt. Az. Time Alt. Az. Time Alt. Az.
03 Sep -0.9 06:24:34 10° S 06:27:00 19° SE 06:29:27 10° E visible
05 Sep -2.6 06:15:57 16° SSW 06:18:19 48° SE 06:21:30 10° ENE visible
06 Sep -1.5 05:25:54 24° SE 05:25:58 24° SE 05:28:41 10° ENE visible
